Location: Unspecified
(0.0000°N, 0.0000°E)
Time: 11:17:32
(UTC+00:00)

Transit 2A - Pass Details

Date: 22 November 2019
Orbit: 602 x 957 km, 66.7° (Epoch: 14 December)

Event Time Altitude Azimuth Distance (km) Brightness Sun altitude
Rises 20:47:54 0° 6° (N) 2,958 - -42.0°
Reaches altitude 10° 20:50:35 10° 23° (NNE) 2,101 - -42.6°
Maximum altitude 20:54:11 21° 72° (ENE) 1,557 - -43.3°
Drops below altitude 10° 20:58:03 10° 121° (ESE) 2,274 - -44.2°
Sets 21:01:04 0° 136° (SE) 3,275 - -44.9°
